This is the latest recevied weather packets stored in our database for station/object IU3NMQ-10. If no packets are shown the sender has not sent any weather packets the latest 10 day(s).
| Time | Temp. | Humidity | Pressure | Rain* | Wind** | Luminosity | Snow |
|---|---|---|---|---|---|---|---|
| 1777447469 | 20° C | 63% | 1014.2 hPa | - | - | - | - |
| 1777446569 | 20° C | 65% | 1014 hPa | - | - | - | - |
| 1777445669 | 19.44° C | 65% | 1014 hPa | - | - | - | - |
| 1777444769 | 19.44° C | 64% | 1013.8 hPa | - | - | - | - |
| 1777443869 | 18.89° C | 65% | 1013.8 hPa | - | - | - | - |
| 1777442969 | 18.89° C | 66% | 1013.7 hPa | - | - | - | - |
| 1777442069 | 18.89° C | 66% | 1013.6 hPa | - | - | - | - |
| 1777441169 | 18.33° C | 66% | 1013.5 hPa | - | - | - | - |
| 1777440268 | 18.33° C | 66% | 1013.5 hPa | - | - | - | - |
| 1777439368 | 18.33° C | 66% | 1013.4 hPa | - | - | - | - |
| 1777438468 | 18.33° C | 66% | 1013.4 hPa | - | - | - | - |
| 1777437568 | 17.78° C | 68% | 1013.2 hPa | - | - | - | - |
| 1777436668 | 17.78° C | 67% | 1013.1 hPa | - | - | - | - |
| 1777435768 | 17.78° C | 68% | 1012.9 hPa | - | - | - | - |
| 1777434868 | 17.78° C | 68% | 1012.9 hPa | - | - | - | - |
| 1777433968 | 17.78° C | 67% | 1013 hPa | - | - | - | - |
| 1777433067 | 17.78° C | 67% | 1013 hPa | - | - | - | - |
| 1777432167 | 17.78° C | 66% | 1013 hPa | - | - | - | - |
| 1777431267 | 17.78° C | 67% | 1013.1 hPa | - | - | - | - |
| 1777430414 | 17.78° C | 67% | 1013.1 hPa | - | - | - | - |
| 1777430367 | 17.78° C | 67% | 1013.1 hPa | - | - | - | - |
| 1777429467 | 18.33° C | 66% | 1013.2 hPa | - | - | - | - |
| 1777428567 | 18.33° C | 66% | 1013.1 hPa | - | - | - | - |
| 1777427667 | 18.33° C | 64% | 1013.1 hPa | - | - | - | - |
| 1777426767 | 18.33° C | 64% | 1012.9 hPa | - | - | - | - |
* Rain since midnight (hover to see other rain measurements)
** Current wind speed in m/s (hover to see current wind gust speed)